Volver al catálogo

STARLINK-32421

ActivoComunicacionesVLEO
NORAD 61628·PAYLOAD·🇺🇸 United States

Lanzado Oct 23, 2024 desde Cape Canaveral Space Force Station

Loading…

Próximos Pases (próximas 24 horas)

TLE

ActualizadoSource: CelesTrak SupGP

Época: Sep 14, 2026, 21:07 UTC

1 61628C 24191H   26257.88034722 -.00015585  00000+0 -56454-3 0  2575
2 61628  42.9994 166.1681 0001402 266.6647 298.3636 15.27583718    10

Sigue STARLINK-32421 en tiempo real con AllMySat

Download on the App Store